Time,TemperatureF,DewpointF,PressureIn,WindDirection,WindDirectionDegrees,WindSpeedMPH,WindSpeedGustMPH,Humidity,HourlyPrecipIn,Conditions,Clouds,dailyrainin,SolarRadiationWatts/m^2,SoftwareType,DateUTC
2017-04-25 00:01:00,54.5,47.8,30.01,SE,134,3.0,3.0,78,0.00,,,0.00,0,Wunderground v.1.15,2017-04-25 04:01:00,
2017-04-25 00:07:00,54.5,47.4,30.01,ESE,113,2.0,5.0,77,0.00,,,0.00,0,Wunderground v.1.15,2017-04-25 04:07:00,
2017-04-25 00:13:00,54.5,47.4,30.01,ESE,118,4.0,8.0,77,0.00,,,0.00,0,Wunderground v.1.15,2017-04-25 04:13:00,
2017-04-25 00:18:00,54.5,47.4,30.01,NE,49,6.0,10.0,77,0.00,,,0.00,0,Wunderground v.1.15,2017-04-25 04:18:00,
2017-04-25 00:24:00,54.6,47.5,30.00,ESE,118,5.0,12.0,77,0.00,,,0.00,0,Wunderground v.1.15,2017-04-25 04:24:00,
2017-04-25 00:30:00,54.6,47.2,30.00,East,91,4.0,4.0,76,0.00,,,0.00,0,Wunderground v.1.15,2017-04-25 04:30:00,
2017-04-25 00:36:00,54.6,46.8,30.00,SSE,151,3.0,4.0,75,0.00,,,0.00,0,Wunderground v.1.15,2017-04-25 04:36:00,
2017-04-25 00:41:00,54.6,46.8,30.00,SE,140,0.0,0.0,75,0.00,,,0.00,0,Wunderground v.1.15,2017-04-25 04:41:00,
2017-04-25 00:46:00,54.6,46.8,30.00,ESE,121,0.0,4.0,75,0.00,,,0.00,0,Wunderground v.1.15,2017-04-25 04:46:00,
2017-04-25 00:52:00,54.5,46.7,30.00,ESE,123,2.0,2.0,75,0.00,,,0.00,0,Wunderground v.1.15,2017-04-25 04:52:00,
2017-04-25 00:58:00,54.5,46.4,30.00,SE,139,3.0,7.0,74,0.00,,,0.00,0,Wunderground v.1.15,2017-04-25 04:58:00,
2017-04-25 01:03:00,54.5,46.4,29.99,ESE,120,1.0,1.0,74,0.00,,,0.00,0,Wunderground v.1.15,2017-04-25 05:03:00,
2017-04-25 01:09:00,54.4,46.3,29.99,SE,128,0.0,2.0,74,0.00,,,0.00,0,Wunderground v.1.15,2017-04-25 05:09:00,
2017-04-25 01:15:00,54.3,46.2,29.99,SSE,168,3.0,10.0,74,0.00,,,0.00,0,Wunderground v.1.15,2017-04-25 05:15:00,
2017-04-25 01:20:00,54.2,46.1,29.99,SE,128,4.0,4.0,74,0.00,,,0.00,0,Wunderground v.1.15,2017-04-25 05:20:00,
2017-04-25 01:26:00,54.2,45.7,29.98,SSE,153,3.0,9.0,73,0.00,,,0.00,0,Wunderground v.1.15,2017-04-25 05:26:00,
2017-04-25 01:31:00,54.2,45.7,29.98,East,99,5.0,5.0,73,0.00,,,0.00,0,Wunderground v.1.15,2017-04-25 05:31:00,
2017-04-25 01:37:00,54.0,45.5,29.97,SE,128,4.0,7.0,73,0.00,,,0.00,0,Wunderground v.1.15,2017-04-25 05:37:00,
2017-04-25 01:43:00,54.0,45.2,29.97,SE,142,2.0,2.0,72,0.00,,,0.00,0,Wunderground v.1.15,2017-04-25 05:43:00,
2017-04-25 01:48:00,54.0,45.2,29.97,East,80,2.0,6.0,72,0.00,,,0.00,0,Wunderground v.1.15,2017-04-25 05:48:00,
2017-04-25 01:54:00,53.9,45.1,29.97,SE,124,3.0,9.0,72,0.00,,,0.00,0,Wunderground v.1.15,2017-04-25 05:54:00,
2017-04-25 02:00:00,53.9,45.1,29.96,SE,124,3.0,3.0,72,0.00,,,0.00,0,Wunderground v.1.15,2017-04-25 06:00:00,
2017-04-25 02:05:00,54.0,44.4,29.96,ESE,114,3.0,7.0,70,0.00,,,0.00,0,Wunderground v.1.15,2017-04-25 06:05:00,
2017-04-25 02:11:00,54.0,44.4,29.96,SE,130,2.0,3.0,70,0.00,,,0.00,0,Wunderground v.1.15,2017-04-25 06:11:00,
2017-04-25 02:16:00,54.0,44.4,29.96,SE,140,2.0,3.0,70,0.00,,,0.00,0,Wunderground v.1.15,2017-04-25 06:16:00,
2017-04-25 02:22:00,54.0,44.4,29.96,SE,140,2.0,3.0,70,0.00,,,0.00,0,Wunderground v.1.15,2017-04-25 06:22:00,
2017-04-25 02:28:00,53.9,44.0,29.95,East,98,1.0,3.0,69,0.00,,,0.00,0,Wunderground v.1.15,2017-04-25 06:28:00,
2017-04-25 02:33:00,54.0,44.1,29.95,ESE,105,1.0,7.0,69,0.00,,,0.00,0,Wunderground v.1.15,2017-04-25 06:33:00,
2017-04-25 02:38:00,53.9,44.0,29.95,East,86,1.0,7.0,69,0.00,,,0.00,0,Wunderground v.1.15,2017-04-25 06:38:00,
2017-04-25 02:44:00,54.0,44.1,29.95,SE,136,1.0,1.0,69,0.00,,,0.00,0,Wunderground v.1.15,2017-04-25 06:44:00,
2017-04-25 02:49:00,54.0,44.1,29.95,SE,130,0.0,1.0,69,0.00,,,0.00,0,Wunderground v.1.15,2017-04-25 06:49:00,
2017-04-25 02:55:00,54.0,43.7,29.95,ESE,114,0.0,0.0,68,0.00,,,0.00,0,Wunderground v.1.15,2017-04-25 06:55:00,
2017-04-25 03:00:00,54.1,44.2,29.94,East,100,0.0,0.0,69,0.00,,,0.00,0,Wunderground v.1.15,2017-04-25 07:00:00,
2017-04-25 03:06:00,54.1,44.2,29.94,SE,144,0.0,0.0,69,0.00,,,0.00,0,Wunderground v.1.15,2017-04-25 07:06:00,
2017-04-25 03:12:00,54.1,44.2,29.94,SE,134,0.0,5.0,69,0.00,,,0.00,0,Wunderground v.1.15,2017-04-25 07:12:00,
2017-04-25 03:18:00,54.1,44.2,29.94,ESE,106,1.0,5.0,69,0.00,,,0.00,0,Wunderground v.1.15,2017-04-25 07:18:00,
2017-04-25 03:23:00,54.2,44.6,29.93,South,179,0.0,1.0,70,0.00,,,0.00,0,Wunderground v.1.15,2017-04-25 07:23:00,
2017-04-25 03:29:00,54.2,44.6,29.93,SSE,167,0.0,7.0,70,0.00,,,0.00,0,Wunderground v.1.15,2017-04-25 07:29:00,
2017-04-25 03:34:00,54.2,44.6,29.93,ESE,117,3.0,10.0,70,0.00,,,0.00,0,Wunderground v.1.15,2017-04-25 07:34:00,
2017-04-25 03:40:00,54.2,45.0,29.93,ESE,109,2.0,2.0,71,0.00,,,0.00,0,Wunderground v.1.15,2017-04-25 07:40:00,
2017-04-25 03:46:00,54.2,45.0,29.93,SE,128,0.0,2.0,71,0.00,,,0.00,0,Wunderground v.1.15,2017-04-25 07:46:00,
2017-04-25 03:51:00,54.3,45.1,29.93,SSE,164,0.0,0.0,71,0.00,,,0.00,0,Wunderground v.1.15,2017-04-25 07:51:00,
2017-04-25 03:57:00,54.2,45.4,29.93,SE,126,0.0,0.0,72,0.00,,,0.00,0,Wunderground v.1.15,2017-04-25 07:57:00,
2017-04-25 04:03:00,54.2,45.4,29.93,SE,126,0.0,7.0,72,0.00,,,0.00,0,Wunderground v.1.15,2017-04-25 08:03:00,
2017-04-25 04:09:00,54.2,45.7,29.93,SE,143,1.0,7.0,73,0.00,,,0.00,0,Wunderground v.1.15,2017-04-25 08:09:00,
2017-04-25 04:14:00,54.2,45.7,29.93,SE,144,0.0,1.0,73,0.00,,,0.00,0,Wunderground v.1.15,2017-04-25 08:14:00,
2017-04-25 04:20:00,54.1,45.6,29.93,ESE,105,0.0,8.0,73,0.00,,,0.00,0,Wunderground v.1.15,2017-04-25 08:20:00,
2017-04-25 04:26:00,54.1,46.0,29.93,ESE,120,1.0,8.0,74,0.00,,,0.00,0,Wunderground v.1.15,2017-04-25 08:26:00,
2017-04-25 04:31:00,54.1,46.0,29.93,SSE,153,1.0,5.0,74,0.00,,,0.00,0,Wunderground v.1.15,2017-04-25 08:31:00,
2017-04-25 04:37:00,54.0,45.9,29.93,East,99,1.0,5.0,74,0.00,,,0.00,0,Wunderground v.1.15,2017-04-25 08:37:00,
2017-04-25 04:42:00,54.0,46.3,29.93,ESE,115,0.0,1.0,75,0.00,,,0.00,0,Wunderground v.1.15,2017-04-25 08:42:00,
2017-04-25 04:48:00,54.0,46.3,29.93,SE,136,1.0,8.0,75,0.00,,,0.00,0,Wunderground v.1.15,2017-04-25 08:48:00,
2017-04-25 04:53:00,54.0,46.3,29.93,SE,132,0.0,4.0,75,0.00,,,0.00,0,Wunderground v.1.15,2017-04-25 08:53:00,
2017-04-25 04:59:00,54.0,46.3,29.93,SE,130,0.0,4.0,75,0.00,,,0.00,0,Wunderground v.1.15,2017-04-25 08:59:00,
2017-04-25 05:05:00,54.0,46.3,29.93,SSE,156,0.0,0.0,75,0.00,,,0.00,0,Wunderground v.1.15,2017-04-25 09:05:00,
2017-04-25 05:10:00,53.9,46.5,29.93,ESE,105,0.0,0.0,76,0.00,,,0.00,0,Wunderground v.1.15,2017-04-25 09:10:00,
2017-04-25 05:16:00,53.8,46.4,29.93,ESE,121,0.0,0.0,76,0.00,,,0.00,0,Wunderground v.1.15,2017-04-25 09:16:00,
2017-04-25 05:21:00,53.8,46.8,29.94,East,90,1.0,1.0,77,0.00,,,0.00,0,Wunderground v.1.15,2017-04-25 09:21:00,
2017-04-25 05:27:00,53.9,47.2,29.94,ESE,113,5.0,18.0,78,0.00,,,0.00,0,Wunderground v.1.15,2017-04-25 09:27:00,
2017-04-25 05:33:00,53.7,47.3,29.94,SE,146,7.0,7.0,79,0.00,,,0.00,0,Wunderground v.1.15,2017-04-25 09:33:00,
2017-04-25 05:38:00,53.5,47.8,29.94,SE,140,3.0,7.0,81,0.00,,,0.00,0,Wunderground v.1.15,2017-04-25 09:38:00,
2017-04-25 05:44:00,53.3,47.9,29.94,SE,135,3.0,9.0,82,0.00,,,0.00,0,Wunderground v.1.15,2017-04-25 09:44:00,
2017-04-25 05:50:00,53.1,48.1,29.94,SE,136,3.0,3.0,83,0.00,,,0.00,0,Wunderground v.1.15,2017-04-25 09:50:00,
2017-04-25 05:56:00,52.9,48.2,29.94,SE,133,0.0,3.0,84,0.00,,,0.00,0,Wunderground v.1.15,2017-04-25 09:56:00,
2017-04-25 06:01:00,52.6,48.2,29.94,SSE,161,0.0,0.0,85,0.00,,,0.00,0,Wunderground v.1.15,2017-04-25 10:01:00,
2017-04-25 06:07:00,52.3,48.2,29.94,ESE,104,0.0,0.0,86,0.00,,,0.01,0,Wunderground v.1.15,2017-04-25 10:07:00,
2017-04-25 06:13:00,52.1,48.0,29.95,SE,144,0.0,6.0,86,0.00,,,0.01,0,Wunderground v.1.15,2017-04-25 10:13:00,
2017-04-25 06:18:00,51.9,48.2,29.94,ESE,105,1.0,8.0,87,0.00,,,0.01,0,Wunderground v.1.15,2017-04-25 10:18:00,
2017-04-25 06:24:00,51.7,48.0,29.95,ESE,105,1.0,1.0,87,0.00,,,0.01,0,Wunderground v.1.15,2017-04-25 10:24:00,
2017-04-25 06:30:00,51.5,48.1,29.94,ESE,114,0.0,0.0,88,0.00,,,0.02,0,Wunderground v.1.15,2017-04-25 10:30:00,
2017-04-25 06:36:00,51.2,47.8,29.94,SE,130,0.0,0.0,88,0.00,,,0.02,0,Wunderground v.1.15,2017-04-25 10:36:00,
2017-04-25 06:41:00,51.1,48.0,29.95,East,96,0.0,0.0,89,0.00,,,0.02,0,Wunderground v.1.15,2017-04-25 10:41:00,
2017-04-25 06:47:00,51.0,47.9,29.95,ESE,121,0.0,0.0,89,0.00,,,0.02,5,Wunderground v.1.15,2017-04-25 10:47:00,
2017-04-25 06:52:00,50.9,48.1,29.95,ESE,115,0.0,0.0,90,0.00,,,0.03,9,Wunderground v.1.15,2017-04-25 10:52:00,
2017-04-25 06:58:00,50.8,48.0,29.95,ESE,119,0.0,0.0,90,0.00,,,0.03,11,Wunderground v.1.15,2017-04-25 10:58:00,
2017-04-25 07:04:00,50.7,48.2,29.95,SE,142,0.0,0.0,91,0.00,,,0.03,11,Wunderground v.1.15,2017-04-25 11:04:00,
2017-04-25 07:09:00,50.6,48.1,29.95,SE,142,0.0,0.0,91,0.00,,,0.03,11,Wunderground v.1.15,2017-04-25 11:09:00,
2017-04-25 07:15:00,50.6,48.1,29.95,SE,126,0.0,0.0,91,0.00,,,0.03,12,Wunderground v.1.15,2017-04-25 11:15:00,
2017-04-25 07:21:00,50.6,48.1,29.95,ESE,122,0.0,0.0,91,0.00,,,0.03,14,Wunderground v.1.15,2017-04-25 11:21:00,
2017-04-25 07:26:00,50.5,48.0,29.95,ESE,116,0.0,0.0,91,0.00,,,0.03,16,Wunderground v.1.15,2017-04-25 11:26:00,
2017-04-25 07:32:00,50.5,48.3,29.95,SE,134,0.0,0.0,92,0.00,,,0.03,19,Wunderground v.1.15,2017-04-25 11:32:00,
2017-04-25 07:38:00,50.5,48.3,29.95,SSE,158,0.0,0.0,92,0.00,,,0.03,28,Wunderground v.1.15,2017-04-25 11:38:00,
2017-04-25 07:43:00,50.6,48.4,29.95,SSE,157,0.0,0.0,92,0.00,,,0.04,33,Wunderground v.1.15,2017-04-25 11:43:00,
2017-04-25 07:49:00,50.5,48.3,29.96,SE,131,0.0,0.0,92,0.00,,,0.04,37,Wunderground v.1.15,2017-04-25 11:49:00,
2017-04-25 07:55:00,50.6,48.4,29.96,SSE,160,0.0,0.0,92,0.00,,,0.04,49,Wunderground v.1.15,2017-04-25 11:55:00,
2017-04-25 08:00:00,50.6,48.4,29.96,ENE,71,0.0,0.0,92,0.00,,,0.04,69,Wunderground v.1.15,2017-04-25 12:00:00,
2017-04-25 08:06:00,50.6,48.4,29.96,South,169,0.0,0.0,92,0.00,,,0.04,74,Wunderground v.1.15,2017-04-25 12:06:00,
2017-04-25 08:11:00,50.8,48.6,29.96,SE,146,0.0,0.0,92,0.00,,,0.04,84,Wunderground v.1.15,2017-04-25 12:11:00,
2017-04-25 08:17:00,50.8,48.6,29.96,SE,142,0.0,5.0,92,0.00,,,0.04,97,Wunderground v.1.15,2017-04-25 12:17:00,
2017-04-25 08:23:00,51.0,49.0,29.96,SE,136,0.0,0.0,93,0.00,,,0.04,98,Wunderground v.1.15,2017-04-25 12:23:00,
2017-04-25 08:28:00,51.1,49.1,29.96,ESE,120,0.0,1.0,93,0.00,,,0.05,134,Wunderground v.1.15,2017-04-25 12:28:00,
2017-04-25 08:34:00,51.2,49.2,29.97,ESE,115,0.0,11.0,93,0.00,,,0.05,172,Wunderground v.1.15,2017-04-25 12:34:00,
2017-04-25 08:40:00,51.3,49.3,29.97,SSE,161,1.0,1.0,93,0.00,,,0.05,172,Wunderground v.1.15,2017-04-25 12:40:00,
2017-04-25 08:45:00,51.5,49.5,29.97,SSE,166,1.0,7.0,93,0.00,,,0.05,158,Wunderground v.1.15,2017-04-25 12:45:00,
2017-04-25 08:51:00,51.8,49.8,29.97,ESE,119,3.0,3.0,93,0.00,,,0.05,120,Wunderground v.1.15,2017-04-25 12:51:00,
2017-04-25 08:56:00,51.8,49.5,29.97,East,94,1.0,3.0,92,0.00,,,0.05,98,Wunderground v.1.15,2017-04-25 12:56:00,
2017-04-25 09:02:00,51.8,49.5,29.97,ESE,109,3.0,10.0,92,0.00,,,0.05,97,Wunderground v.1.15,2017-04-25 13:02:00,
2017-04-25 09:08:00,51.8,49.3,29.97,ENE,60,4.0,10.0,91,0.00,,,0.05,91,Wunderground v.1.15,2017-04-25 13:08:00,
2017-04-25 09:13:00,51.9,49.6,29.97,ENE,71,3.0,4.0,92,0.00,,,0.05,86,Wunderground v.1.15,2017-04-25 13:13:00,
2017-04-25 09:19:00,52.0,49.5,29.97,South,174,1.0,6.0,91,0.00,,,0.05,107,Wunderground v.1.15,2017-04-25 13:19:00,
2017-04-25 09:25:00,52.1,49.8,29.97,SE,130,2.0,6.0,92,0.00,,,0.05,118,Wunderground v.1.15,2017-04-25 13:25:00,
2017-04-25 09:30:00,52.2,49.9,29.97,ENE,77,2.0,2.0,92,0.00,,,0.05,118,Wunderground v.1.15,2017-04-25 13:30:00,
2017-04-25 09:36:00,52.2,49.9,29.97,ENE,78,0.0,2.0,92,0.00,,,0.05,128,Wunderground v.1.15,2017-04-25 13:36:00,
2017-04-25 09:41:00,52.3,49.8,29.96,NE,43,0.0,0.0,91,0.00,,,0.05,139,Wunderground v.1.15,2017-04-25 13:41:00,
2017-04-25 09:47:00,52.4,49.8,29.96,ENE,71,1.0,8.0,91,0.00,,,0.05,148,Wunderground v.1.15,2017-04-25 13:47:00,
2017-04-25 09:52:00,52.5,49.9,29.96,East,85,3.0,5.0,91,0.00,,,0.05,165,Wunderground v.1.15,2017-04-25 13:52:00,
2017-04-25 09:58:00,52.9,50.6,29.95,ENE,69,3.0,7.0,92,0.00,,,0.05,186,Wunderground v.1.15,2017-04-25 13:58:00,
2017-04-25 10:04:00,53.0,50.4,29.95,ENE,77,1.0,2.0,91,0.00,,,0.05,214,Wunderground v.1.15,2017-04-25 14:04:00,
2017-04-25 10:10:00,53.3,50.7,29.95,ESE,119,2.0,2.0,91,0.00,,,0.05,218,Wunderground v.1.15,2017-04-25 14:10:00,
2017-04-25 10:15:00,53.6,51.0,29.95,SSE,148,3.0,9.0,91,0.00,,,0.05,218,Wunderground v.1.15,2017-04-25 14:15:00,
2017-04-25 10:21:00,53.8,50.9,29.95,ENE,66,3.0,3.0,90,0.00,,,0.05,214,Wunderground v.1.15,2017-04-25 14:21:00,
2017-04-25 10:26:00,54.1,51.2,29.95,SW,234,1.0,3.0,90,0.00,,,0.05,213,Wunderground v.1.15,2017-04-25 14:26:00,
2017-04-25 10:32:00,54.3,51.1,29.95,ENE,57,1.0,1.0,89,0.00,,,0.05,211,Wunderground v.1.15,2017-04-25 14:32:00,
2017-04-25 10:38:00,54.5,51.3,29.95,ESE,120,1.0,1.0,89,0.00,,,0.05,221,Wunderground v.1.15,2017-04-25 14:38:00,
2017-04-25 10:44:00,54.7,51.2,29.94,ENE,68,0.0,1.0,88,0.00,,,0.05,232,Wunderground v.1.15,2017-04-25 14:44:00,
2017-04-25 10:49:00,54.8,51.0,29.94,East,95,0.0,1.0,87,0.00,,,0.05,230,Wunderground v.1.15,2017-04-25 14:49:00,
2017-04-25 10:55:00,55.3,51.8,29.94,SE,142,1.0,8.0,88,0.00,,,0.05,223,Wunderground v.1.15,2017-04-25 14:55:00,
2017-04-25 11:00:00,55.8,52.0,29.94,ESE,123,2.0,4.0,87,0.00,,,0.05,227,Wunderground v.1.15,2017-04-25 15:00:00,
2017-04-25 11:06:00,56.0,51.9,29.94,NE,42,2.0,4.0,86,0.00,,,0.05,236,Wunderground v.1.15,2017-04-25 15:06:00,
2017-04-25 11:12:00,56.0,51.6,29.93,SE,131,1.0,1.0,85,0.00,,,0.05,237,Wunderground v.1.15,2017-04-25 15:12:00,
2017-04-25 11:17:00,56.3,52.2,29.93,NE,40,0.0,6.0,86,0.00,,,0.05,239,Wunderground v.1.15,2017-04-25 15:17:00,
2017-04-25 11:23:00,56.4,51.6,29.93,SE,125,1.0,1.0,84,0.00,,,0.05,244,Wunderground v.1.15,2017-04-25 15:23:00,
2017-04-25 11:29:00,56.4,51.6,29.93,NNE,15,1.0,2.0,84,0.00,,,0.05,260,Wunderground v.1.15,2017-04-25 15:29:00,
2017-04-25 11:35:00,56.7,51.9,29.93,NE,55,1.0,6.0,84,0.00,,,0.05,276,Wunderground v.1.15,2017-04-25 15:35:00,
2017-04-25 11:41:00,57.2,52.4,29.93,ESE,120,1.0,6.0,84,0.00,,,0.05,292,Wunderground v.1.15,2017-04-25 15:41:00,
2017-04-25 11:46:00,57.6,52.5,29.93,East,90,1.0,6.0,83,0.00,,,0.05,287,Wunderground v.1.15,2017-04-25 15:46:00,
2017-04-25 11:52:00,57.5,52.4,29.92,ESE,111,2.0,8.0,83,0.00,,,0.05,272,Wunderground v.1.15,2017-04-25 15:52:00,
2017-04-25 11:58:00,57.5,52.4,29.91,NE,35,2.0,8.0,83,0.00,,,0.05,274,Wunderground v.1.15,2017-04-25 15:58:00,
2017-04-25 12:03:00,57.6,52.5,29.91,East,95,2.0,7.0,83,0.00,,,0.05,287,Wunderground v.1.15,2017-04-25 16:03:00,
2017-04-25 12:09:00,57.7,52.2,29.91,ENE,70,2.0,9.0,82,0.00,,,0.05,316,Wunderground v.1.15,2017-04-25 16:09:00,
2017-04-25 12:14:00,57.8,52.3,29.91,NNE,24,2.0,7.0,82,0.00,,,0.05,355,Wunderground v.1.15,2017-04-25 16:14:00,
2017-04-25 12:20:00,58.1,52.6,29.91,ENE,76,2.0,2.0,82,0.00,,,0.05,390,Wunderground v.1.15,2017-04-25 16:20:00,
2017-04-25 12:26:00,58.3,52.8,29.91,NE,46,1.0,8.0,82,0.00,,,0.05,394,Wunderground v.1.15,2017-04-25 16:26:00,
2017-04-25 12:31:00,58.7,53.2,29.91,ESE,109,1.0,2.0,82,0.00,,,0.05,396,Wunderground v.1.15,2017-04-25 16:31:00,
2017-04-25 12:32:00,58.7,53.2,29.91,East,83,1.0,2.0,82,0.00,,,0.05,396,Wunderground v.1.15,2017-04-25 16:32:00,
2017-04-25 12:38:00,59.2,53.4,29.91,NE,38,1.0,5.0,81,0.00,,,0.05,346,Wunderground v.1.15,2017-04-25 16:38:00,
2017-04-25 12:44:00,59.4,53.6,29.90,NE,45,0.0,1.0,81,0.00,,,0.05,267,Wunderground v.1.15,2017-04-25 16:44:00,
2017-04-25 12:50:00,59.4,53.2,29.90,East,82,0.0,0.0,80,0.00,,,0.05,359,Wunderground v.1.15,2017-04-25 16:50:00,
2017-04-25 12:56:00,59.7,53.5,29.90,NE,54,1.0,1.0,80,0.00,,,0.05,390,Wunderground v.1.15,2017-04-25 16:56:00,
2017-04-25 13:02:00,60.0,53.8,29.90,NE,40,1.0,1.0,80,0.00,,,0.05,466,Wunderground v.1.15,2017-04-25 17:02:00,
2017-04-25 13:07:00,60.3,54.1,29.89,ESE,117,1.0,1.0,80,0.00,,,0.05,526,Wunderground v.1.15,2017-04-25 17:07:00,
2017-04-25 13:13:00,61.3,54.7,29.89,North,5,0.0,5.0,79,0.00,,,0.05,668,Wunderground v.1.15,2017-04-25 17:13:00,
2017-04-25 13:19:00,62.6,55.3,29.89,NE,40,1.0,6.0,77,0.00,,,0.05,775,Wunderground v.1.15,2017-04-25 17:19:00,
2017-04-25 13:25:00,63.3,55.2,29.89,NNE,30,2.0,6.0,75,0.00,,,0.05,779,Wunderground v.1.15,2017-04-25 17:25:00,
2017-04-25 13:30:00,63.9,55.8,29.88,NW,318,1.0,1.0,75,0.00,,,0.05,752,Wunderground v.1.15,2017-04-25 17:30:00,
2017-04-25 13:36:00,64.9,56.0,29.88,NNW,327,0.0,1.0,73,0.00,,,0.05,983,Wunderground v.1.15,2017-04-25 17:36:00,
2017-04-25 13:42:00,65.1,55.8,29.88,ENE,57,2.0,7.0,72,0.00,,,0.05,548,Wunderground v.1.15,2017-04-25 17:42:00,
2017-04-25 13:48:00,65.4,56.1,29.88,East,84,3.0,14.0,72,0.00,,,0.05,520,Wunderground v.1.15,2017-04-25 17:48:00,
2017-04-25 13:54:00,66.8,56.7,29.87,NE,54,2.0,7.0,70,0.00,,,0.05,596,Wunderground v.1.15,2017-04-25 17:54:00,
2017-04-25 13:59:00,67.3,56.8,29.87,SE,135,2.0,7.0,69,0.00,,,0.05,570,Wunderground v.1.15,2017-04-25 17:59:00,
2017-04-25 14:05:00,67.9,56.5,29.87,South,191,2.0,12.0,67,0.00,,,0.05,858,Wunderground v.1.15,2017-04-25 18:05:00,
2017-04-25 14:11:00,69.3,57.0,29.86,SE,138,6.0,9.0,65,0.00,,,0.05,926,Wunderground v.1.15,2017-04-25 18:11:00,
2017-04-25 14:16:00,69.2,56.5,29.86,ESE,104,6.0,9.0,64,0.00,,,0.05,779,Wunderground v.1.15,2017-04-25 18:16:00,
2017-04-25 14:22:00,68.4,56.6,29.86,East,82,4.0,7.0,66,0.00,,,0.05,413,Wunderground v.1.15,2017-04-25 18:22:00,
2017-04-25 14:27:00,68.0,56.2,29.86,ESE,121,3.0,9.0,66,0.00,,,0.05,385,Wunderground v.1.15,2017-04-25 18:27:00,
2017-04-25 14:33:00,68.5,56.7,29.79,SSE,165,3.0,9.0,66,0.00,,,0.05,638,Wunderground v.1.15,2017-04-25 18:33:00,
2017-04-25 14:39:00,69.7,56.5,29.79,SE,134,7.0,11.0,63,0.00,,,0.05,415,Wunderground v.1.15,2017-04-25 18:39:00,
2017-04-25 14:44:00,69.4,55.8,29.79,SE,128,6.0,15.0,62,0.00,,,0.05,322,Wunderground v.1.15,2017-04-25 18:44:00,
2017-04-25 14:50:00,69.0,55.9,29.79,ESE,114,5.0,13.0,63,0.00,,,0.05,325,Wunderground v.1.15,2017-04-25 18:50:00,
2017-04-25 14:55:00,68.8,56.6,29.79,SE,134,7.0,14.0,65,0.00,,,0.05,258,Wunderground v.1.15,2017-04-25 18:55:00,
2017-04-25 15:00:00,68.3,56.5,29.78,South,170,8.0,10.0,66,0.00,,,0.05,339,Wunderground v.1.15,2017-04-25 19:00:00,
2017-04-25 15:06:00,68.3,56.5,29.78,SSE,153,8.0,10.0,66,0.00,,,0.05,299,Wunderground v.1.15,2017-04-25 19:06:00,
2017-04-25 15:11:00,68.2,56.4,29.78,SE,136,6.0,8.0,66,0.00,,,0.05,350,Wunderground v.1.15,2017-04-25 19:11:00,
2017-04-25 15:17:00,67.9,56.1,29.78,ENE,76,5.0,9.0,66,0.00,,,0.05,404,Wunderground v.1.15,2017-04-25 19:17:00,
2017-04-25 15:23:00,67.5,56.2,29.78,South,173,5.0,5.0,67,0.00,,,0.05,288,Wunderground v.1.15,2017-04-25 19:23:00,
2017-04-25 15:28:00,67.3,56.4,29.78,SE,129,4.0,14.0,68,0.00,,,0.05,230,Wunderground v.1.15,2017-04-25 19:28:00,
2017-04-25 15:34:00,67.0,56.1,29.78,SSE,155,6.0,11.0,68,0.00,,,0.05,234,Wunderground v.1.15,2017-04-25 19:34:00,
2017-04-25 15:39:00,67.0,56.1,29.78,ESE,103,6.0,12.0,68,0.00,,,0.05,218,Wunderground v.1.15,2017-04-25 19:39:00,
2017-04-25 15:45:00,66.1,55.6,29.78,SE,138,5.0,11.0,69,0.00,,,0.05,160,Wunderground v.1.15,2017-04-25 19:45:00,
2017-04-25 15:51:00,65.9,56.2,29.78,NE,34,1.0,7.0,71,0.00,,,0.05,137,Wunderground v.1.15,2017-04-25 19:51:00,
2017-04-25 15:56:00,65.5,55.8,29.78,East,80,3.0,7.0,71,0.00,,,0.05,202,Wunderground v.1.15,2017-04-25 19:56:00,
2017-04-25 16:02:00,65.3,55.7,29.78,East,90,3.0,6.0,71,0.00,,,0.05,216,Wunderground v.1.15,2017-04-25 20:02:00,
2017-04-25 16:07:00,65.3,56.4,29.78,SSE,155,4.0,10.0,73,0.00,,,0.05,156,Wunderground v.1.15,2017-04-25 20:07:00,
2017-04-25 16:13:00,64.8,56.3,29.78,SSE,159,5.0,6.0,74,0.00,,,0.05,125,Wunderground v.1.15,2017-04-25 20:13:00,
2017-04-25 16:19:00,64.5,56.0,29.78,SE,132,5.0,9.0,74,0.00,,,0.05,153,Wunderground v.1.15,2017-04-25 20:19:00,
2017-04-25 16:24:00,64.1,56.4,29.78,ESE,105,4.0,5.0,76,0.00,,,0.05,160,Wunderground v.1.15,2017-04-25 20:24:00,
2017-04-25 16:30:00,64.0,57.0,29.78,ESE,115,1.0,7.0,78,0.00,,,0.05,178,Wunderground v.1.15,2017-04-25 20:30:00,
2017-04-25 16:35:00,63.3,56.7,29.78,East,88,3.0,9.0,79,0.00,,,0.05,174,Wunderground v.1.15,2017-04-25 20:35:00,
2017-04-25 16:41:00,62.8,57.2,29.78,SE,138,4.0,4.0,82,0.00,,,0.05,211,Wunderground v.1.15,2017-04-25 20:41:00,
2017-04-25 16:47:00,62.6,57.4,29.78,SE,126,3.0,5.0,83,0.00,,,0.05,223,Wunderground v.1.15,2017-04-25 20:47:00,
2017-04-25 16:53:00,62.5,57.9,29.78,ESE,118,2.0,2.0,85,0.00,,,0.05,190,Wunderground v.1.15,2017-04-25 20:53:00,
2017-04-25 16:58:00,62.4,58.2,29.78,East,97,0.0,2.0,86,0.00,,,0.05,176,Wunderground v.1.15,2017-04-25 20:58:00,
2017-04-25 17:03:00,62.0,58.1,29.78,East,99,0.0,0.0,87,0.00,,,0.05,176,Wunderground v.1.15,2017-04-25 21:03:00,
2017-04-25 17:09:00,61.8,58.5,29.78,SE,132,0.0,0.0,89,0.00,,,0.05,165,Wunderground v.1.15,2017-04-25 21:09:00,
2017-04-25 17:14:00,61.4,57.8,29.78,NNE,32,0.0,0.0,88,0.00,,,0.05,148,Wunderground v.1.15,2017-04-25 21:14:00,
2017-04-25 17:20:00,60.9,57.6,29.78,East,82,0.0,0.0,89,0.00,,,0.05,151,Wunderground v.1.15,2017-04-25 21:20:00,
2017-04-25 17:25:00,60.9,57.6,29.78,East,83,0.0,0.0,89,0.00,,,0.06,158,Wunderground v.1.15,2017-04-25 21:25:00,
2017-04-25 17:31:00,61.1,58.1,29.78,NNE,24,0.0,0.0,90,0.00,,,0.06,144,Wunderground v.1.15,2017-04-25 21:31:00,
2017-04-25 17:36:00,61.2,58.6,29.78,ENE,67,0.0,0.0,91,0.00,,,0.06,128,Wunderground v.1.15,2017-04-25 21:36:00,
2017-04-25 17:42:00,61.0,58.0,29.78,ENE,70,0.0,0.0,90,0.00,,,0.06,118,Wunderground v.1.15,2017-04-25 21:42:00,
2017-04-25 17:48:00,61.0,58.4,29.78,SE,125,0.0,0.0,91,0.00,,,0.06,97,Wunderground v.1.15,2017-04-25 21:48:00,
2017-04-25 17:53:00,60.6,57.3,29.78,East,83,0.0,0.0,89,0.00,,,0.06,93,Wunderground v.1.15,2017-04-25 21:53:00,
2017-04-25 17:59:00,60.5,57.6,29.77,ENE,78,0.0,0.0,90,0.00,,,0.06,107,Wunderground v.1.15,2017-04-25 21:59:00,